Location: Austin
(30.3000°N, 97.7500°W)
Time: 22:35:18
(UTC-06:00)

Cosmos 1656 - Pass Details

Date: 03 December 2025
Orbit: 795 x 849 km, 71.1° (Epoch: 07 December)

Event Time Altitude Azimuth Distance (km) Brightness Sun altitude
Exits shadow 04:37:49 51° 127° (SE) 1,044 4.3 -32.5°
Drops below altitude 10° 04:42:08 10° 152° (SSE) 2,437 6.5 -31.6°
Sets 04:44:33 0° 155° (SSE) 3,361 7.3 -31.1°
